Flag for Germany Weather past 2 weeks in Herten, North Rhine-Westphalia, Germany

Now
66 °F

Overcast.


Feels Like: 66 °F
Forecast: 59 / 74 °F
Wind: 3 mph from East

Location: Essen

Current Time: Aug 3, 2015 at 2:31:02 AM

Latest Report: Aug 3, 2015 at 2:00 AM


Visibility: 25 mi

Pressure: 30.03 "Hg

Humidity: 58%

Dew point: 51 °F

Location of HertenLocation

Historic Weather in Herten — Graph

°F

Herten temperature yesterday

Maximum temperature yesterday: 78 °F (at 5:00 PM)
Minimum temperature yesterday: 54 °F (at 5:00 AM)
Average temperature yesterday: 69 °F

Past Weeks' High & Low Weather Summary

 TemperatureHumidityPressure
High79 °F (Jul 24, 3:00 PM)100% (Jul 19, 8:00 AM)30.16 "Hg (Jul 19, 8:00 AM)
Low47 °F (Jul 31, 5:00 AM)28% (Aug 2, 3:00 PM)29.50 "Hg (Jul 25, 7:00 AM)
Average63 °F72%29.89 "Hg
* Reported Jul 19 1:00 AM — Aug 3 1:00 AM, Herten, Weather by CustomWeather, © 2015

Note: Actual official high and low records may vary slightly from our data, if they occured in-between our weather recording intervals... More about our weather records

Advertising

Herten weather history for previous 24 hours

 ConditionsComfort  
Time TempWeatherWind HumidityBarometerVisibility
1:00 AM
Mon, Aug 3
67 °FOvercast.5 mph51%30.04 "Hg31 mi
11:00 PM
Sun, Aug 2
70 °FOvercast.5 mph48%30.05 "Hg28 mi
10:00 PM72 °FPassing clouds.3 mph45%30.05 "Hg31 mi
9:00 PM74 °FOvercast.3 mph41%30.04 "Hg31 mi
8:00 PM76 °FOvercast.3 mph38%30.04 "Hg28 mi
7:00 PM78 °FOvercast.3 mph35%30.06 "Hg31 mi
6:00 PM77 °FOvercast.2 mph35%30.07 "Hg37 mi
5:00 PM78 °FOvercast.2 mph32%30.09 "Hg22 mi
4:00 PM77 °FOvercast.2 mph28%30.09 "Hg25 mi
3:00 PM77 °FPartly sunny.2 mph28%30.11 "Hg28 mi
2:00 PM76 °FPassing clouds.2 mph34%30.12 "Hg22 mi
1:00 PM74 °FSunny.2 mph38%30.14 "Hg22 mi
12:00 PM71 °FScattered clouds.2 mph42%30.15 "Hg19 mi
11:00 AM69 °FOvercast.2 mph42%30.15 "Hg28 mi
10:00 AM68 °FSunny.1 mph45%30.14 "Hg19 mi
9:00 AM66 °FSunny.1 mph57%30.13 "Hg17 mi
8:00 AM61 °FSunny.1 mph72%30.13 "Hg12 mi
7:00 AM57 °FSunny.1 mph76%30.12 "Hg14 mi
6:00 AM54 °FSunny.1 mph84%30.11 "Hg12 mi
5:00 AM54 °FClear.1 mph85%30.11 "Hg12 mi
4:00 AM60 °FClear.2 mph68%30.09 "Hg16 mi
2:00 AM61 °FClear.2 mph67%30.09 "Hg19 mi
Weather by CustomWeather, © 2015

See weather overviewHow to use our weather pages